Regional Weather Roundup
Issued by NWS

Home | Current Version | Previous Version | Text Only | Print | Product List | Glossary On
Versions: 1 2 3 4 5 6 7 8 9 10 11 12 13 14 15 16 17 18 19 20 21 22 23 24 25 26 27 28 29 30 31 32 33 34 35 36 37 38 39 40 41 42 43 44 45 46 47 48 49 50
000
ASUS43 KMKX 181700
RWRWI

WISCONSIN REGIONAL WEATHER ROUNDUP
NATIONAL WEATHER SERVICE MILWAUKEE/SULLIVAN WI
1200 PM CDT FRI APR 18 2014

NOTE: "FAIR" INDICATES FEW OR NO CLOUDS BELOW 12,000 FEET WITH NO
SIGNIFICANT WEATHER AND/OR OBSTRUCTIONS TO VISIBILITY.

WIZ001-002-006>008-014>016-023>028-181800-
NORTHWEST WISCONSIN

CITY           SKY/WX    TMP DP  RH WIND       PRES   REMARKS
SUPERIOR ARPT  SUNNY     36  22  58 E8        30.42S WCI  29
ASHLAND        SUNNY     37  20  50 VRB6      30.43S WCI  32
HAYWARD        SUNNY     41  18  39 NE7       30.38F
SIREN          MOSUNNY   42  24  49 SE5       30.38F
RICE LAKE      MOSUNNY   38  25  60 N5        30.40S WCI  34
LADYSMITH      SUNNY     39  23  51 CALM      30.40S
EAU CLAIRE     NOT AVBL
MENOMONIE      MOSUNNY   42  29  61 CALM      30.38F
NEW RICHMOND   CLOUDY    43  27  54 E6        30.39R
OSCEOLA        CLOUDY    40  27  61 CALM      30.41S
$$

WIZ003>005-009-010-017-018-181800-
NORTH CENTRAL WISCONSIN

CITY           SKY/WX    TMP DP  RH WIND       PRES   REMARKS
WOODRUFF       MOSUNNY   42  26  53 N6        30.37S
RHINELANDER    MOSUNNY   36  22  56 NW7       30.37R WCI  30
EAGLE RIVER    PTSUNNY   34  21  58 NW7       30.36S WCI  28
LAND O LAKES   CLOUDY    34  23  65 N6        30.37S WCI  28
PHILLIPS       SUNNY     36  22  57 NE3       30.36F
TOMAHAWK       MOSUNNY   38  21  50 CALM      30.36S
MEDFORD        MOSUNNY   37  22  56 N3        30.36F
MERRILL        MOSUNNY   39  21  47 CALM      30.36S
$$

WIZ029-030-035-036-043>047-181800-
CENTRAL WISCONSIN

CITY           SKY/WX    TMP DP  RH WIND       PRES   REMARKS
WAUSAU         MOSUNNY   41  23  48 VRB5      30.35F
MOSINEE        SUNNY     41  25  52 N12       30.37F
MARSHFIELD     SUNNY     43  26  51 VRB5      30.36F
STEVENS POINT  SUNNY     41  21  45 N8        30.37F
WAUPACA        NOT AVBL
WAUTOMA        NOT AVBL
WISC RAPIDS    SUNNY     45  24  43 N10       30.37F
CAMP DOUGLAS   NOT AVBL
$$

WIZ011>013-019>022-031-037>040-048>050-181800-
NORTHEAST WISCONSIN

CITY           SKY/WX    TMP DP  RH WIND       PRES   REMARKS
ANTIGO         SUNNY     37  24  60 N3        30.36S
STURGEON BAY   CLOUDY    37  25  60 NW9       30.39S WCI  31
GREEN BAY      NOT AVBL
MANITOWOC      NOT AVBL
APPLETON       MOSUNNY   43  27  52 N8        30.38S
CLINTONVILLE   SUNNY     43  27  52 N3        30.37S
OSHKOSH        SUNNY     42  28  57 E6        30.37F
$$

WIZ032>034-041-042-053>061-181800-
SOUTHWEST WISCONSIN

CITY           SKY/WX    TMP DP  RH WIND       PRES   REMARKS
LA CROSSE      SUNNY     46  27  47 S3        30.38S
SPARTA         MOSUNNY   46  22  38 NE5       30.38R
VIROQUA        FAIR      44  27  50 CALM      30.36S
BOSCOBEL       MOSUNNY   49  25  39 N7        30.38F
PRAIRIE DU CHI SUNNY     45  30  57 W5        30.37F
PLATTEVILLE    FAIR      46  31  56 CALM      30.36F
$$

WIZ056-057-062-063-064-067-068-181800-
SOUTH CENTRAL WISCONSIN

CITY           SKY/WX    TMP DP  RH WIND       PRES   REMARKS
BARABOO/DELLS  SUNNY     44  27  50 NE8       30.36F
LONE ROCK      NOT AVBL
WATERTOWN      SUNNY     43  32  63 W3        30.36S
MADISON        MOSUNNY   46  29  51 N6        30.37F
MIDDLETON      FAIR      47  29  50 NE6       30.37S
MONROE         SUNNY     48  32  54 N5        30.34F
JANESVILLE     SUNNY     50  30  46 N6        30.35S
$$

WIZ051-052-058>065-066-070>072-181800-
SOUTHEAST WISCONSIN

CITY           SKY/WX    TMP DP  RH WIND       PRES   REMARKS
MILWAUKEE      MOSUNNY   42  30  62 NE14      30.38S
WAUKESHA       MOSUNNY   45  32  61 N5        30.36F
MILWAUKEE/TIMM PTSUNNY   45  30  57 E7        30.37S
RACINE         SUNNY     44  30  57 N14       30.39R
BURLINGTON     MOSUNNY   47  34  60 CALM      30.35S
KENOSHA        PTSUNNY   48  34  58 NE9G17    30.37R
FOND DU LAC    SUNNY     42  29  59 VRB6      30.38S
SHEBOYGAN      PTSUNNY   44  30  57 MISG      30.37S
WEST BEND      PTSUNNY   43  30  61 CALM      30.36F
JUNEAU         SUNNY     42  27  55 N8        30.38F
$$

LSZ147-162-181800-
LAKE SUPERIOR

STATION/POSITION TIME  TEMP    WIND        PRES    WAVE
                       AIR SEA DIR/SP/G            HT/PER
                 (UTC) (F)     (DEG/KT/KT) (MB)    (FT/S)
DEVILS ISLAND    1600   31      10/  5/  6 1031.6R
PORT WING        1600   33     360/  6/  6 1030.5S
SAXON HARBOR     1600             CALM     1030.8R
$$

LMZ867-665-643>646-181800-
LAKE MICHIGAN

STATION/POSITION TIME  TEMP    WIND        PRES    WAVE
                       AIR SEA DIR/SP/G            HT/PER
                 (UTC) (F)     (DEG/KT/KT) (MB)    (FT/S)
NORTHPORT PIER   1600   35     320/  5/  7 1028.4R
SISTER BAY       1623   41     290/  7/  7   N/A
KEWAUNEE LAKESHO 1600   37     340/  6/ 10 1029.3R
SHEBOYGAN LAKESH 1600   36      50/ 10/ 11 1029.6R
PORT WASHINGTON  1640   39      50/  9/ 12 1029.1S
MILWAUKEE LAKESH 1600   36      30/ 13/ 14   N/A
KENOSHA   LAKESH 1600   38      30/ 19/ 22   N/A
$$

TC  - TEMPERATURE IN CELSIUS
VSB - VISIBILITY IN STATUTE MILES
WCI - WIND CHILL INDEX
HX  - HEAT INDEX




USA.gov is the U.S. government's official web portal to all federal, state and local government web resources and services.